Location: Ch�tillon
(48.8024°N, 2.2935°E)
Time: 18:47:35
(UTC+00:00)

RS-15 - Pass Details

Date: 29 June 2022
Orbit: 1881 x 2163 km, 64.8° (Epoch: 11 August)

Event Time Altitude Azimuth Distance (km) Brightness Sun altitude
Rises 00:54:31 0° 322° (NW) 5,700 11.0 -16.7°
Reaches altitude 10° 00:58:10 10° 317° (NW) 4,690 10.4 -16.6°
Maximum altitude 01:09:32 47° 250° (WSW) 2,666 8.4 -16.0°
Enters shadow 01:18:11 18° 187° (S) 3,924 9.0 -15.6°
